This demonstration page uses our WeatherBlox Daily Observations layout. Learn more.

Left ArrowRight Arrow

38.80484, -77.04692

Hourly Observations for February 11, 2021

Temp ( °F °C ) Dew Point ( °F °C ) Humidity (%) Winds ( mph kmh ) Pressure ( in mb ) Visibility ( mi km ) Precip ( " mm )
12:52 am 00:52 Cloudy with Mist and Fog 35 1.7 33 0.6 93 93 SE 5 7 30.21 1023 4 6 0.07 1.78
1:52 am 01:52 Cloudy with Mist and Fog 35 1.7 34 1.1 96 96 S 6 9 30.19 1022 5 8 0.04 1.02
2:20 am 02:20 Cloudy with Light Rain 35 1.7 33 0.6 93 93 SE 3 6 30.18 1022 5 8 0.00 0.00
2:43 am 02:43 Cloudy with Light Rain 36 2.2 33 0.6 89 89 SE 5 7 30.18 1022 7 11 0.00 0.00
2:50 am 02:50 Cloudy with Light Rain 36 2 34 1 93 93 SE 5 7 30.17 1022 8 13 0.00 0.00
2:52 am 02:52 Cloudy with Light Rain 36 2.2 33 0.6 89 89 SE 5 7 30.17 1022 8 13 0.00 0.00
3:08 am 03:08 Cloudy with Drizzle 36 2.2 33 0.6 89 89 SE 5 7 30.17 1022 8 13 0.00 0.00
3:44 am 03:44 Cloudy 36 2.2 33 0.6 89 89 SE 5 7 30.17 1022 8 13 0.00 0.00
3:52 am 03:52 Cloudy 36 2.2 33 0.6 89 89 SSE 6 9 30.16 1021 8 13 0.00 0.00
4:10 am 04:10 Cloudy 36 2.2 33 0.6 89 89 E 3 6 30.16 1021 9 14 0.00 0.00
4:43 am 04:43 Cloudy 35 1.7 33 0.6 93 93 E 7 11 30.16 1021 8 13 0.00 0.00
4:52 am 04:52 Cloudy 35 1.7 33 0.6 93 93 E 6 9 30.16 1021 8 13 0.00 0.00
5:22 am 05:22 Cloudy 35 1.7 33 0.6 93 93 E 5 7 30.17 1022 8 13 0.00 0.00
5:29 am 05:29 Cloudy with Light Rain 35 1.7 33 0.6 93 93 ENE 5 7 30.18 1022 7 11 0.00 0.00
5:52 am 05:52 Cloudy with Light Rain/Snow 35 1.7 33 0.6 93 93 ENE 8 13 30.16 1022 5 8 0.01 0.25
6:52 am 06:52 Cloudy with Light Rain/Snow 34 1.1 33 0.6 97 97 ENE 9 15 30.17 1022 4 6 0.01 0.25
7:25 am 07:25 Cloudy with Drizzle 35 1.7 33 0.6 93 93 NE 7 11 30.20 1023 4 6 0.00 0.00
7:52 am 07:52 Cloudy with Drizzle 35 1.7 33 0.6 93 93 ENE 8 13 30.20 1023 4 6 0.00 0.00
8:02 am 08:02 Cloudy with Light Snow 34 1.1 32 0 92 92 NE 7 11 30.21 1023 3 4 0.00 0.00
8:24 am 08:24 Cloudy with Light Snow 34 1.1 32 0 92 92 NE 7 11 30.22 1023 3 5 0.01 0.25
8:49 am 08:49 Cloudy with Light Snow 36 2 32 0 87 87 NE 7 11 30.22 1023 4 6 0.01 0.25
8:52 am 08:52 Cloudy with Light Snow 35 1.7 33 0.6 93 93 NE 8 13 30.22 1023 4 6 0.01 0.25
8:59 am 08:59 Cloudy with Light Snow 35 1.7 32 0 89 89 NE 10 17 30.21 1023 3 4 0.00 0.00
9:17 am 09:17 Cloudy with Light Snow 34 1.1 32 0 92 92 NE 9 15 30.22 1023 3 5 0.01 0.25
9:34 am 09:34 Cloudy with Drizzle 35 1.7 32 0 89 89 NNE 12 19 30.22 1023 5 8 0.01 0.25
9:49 am 09:49 Cloudy 36 2 32 0 87 87 NNE 9 15 30.23 1024 7 11 0.01 0.25
9:52 am 09:52 Cloudy 35 1.7 32 0 89 89 NNE 10 17 30.23 1024 7 11 0.01 0.25
10:37 am 10:37 Cloudy with Light Snow 35 1.7 32 0 89 89 NNE 10 17 30.24 1024 4 6 0.00 0.00
10:49 am 10:49 Cloudy with Light Snow 36 2 32 0 87 87 NE 10 17 30.24 1024 3 4 0.00 0.00
10:52 am 10:52 Cloudy with Light Snow 34 1.1 31 -0.6 89 89 NNE 12 19 30.24 1024 3 4 0.00 0.00
11:01 am 11:01 Cloudy with Light Snow 34 1.1 31 -0.6 89 89 NNE 12 19 30.25 1024 4 6 0.00 0.00
11:52 am 11:52 Cloudy with Mist and Fog 34 1.1 31 -0.6 89 89 NE 13 20 30.24 1024 5 8 0.00 0.00
12:07 pm 12:07 Cloudy with Mist and Fog 34 1.1 31 -0.6 89 89 NE 13 20 30.24 1024 5 8 0.00 0.00
12:52 pm 12:52 Cloudy with Mist and Fog 34 1.1 31 -0.6 89 89 NE 10 17 30.22 1024 6 10 0.00 0.00
1:52 pm 13:52 Cloudy with Mist and Fog 34 1.1 31 -0.6 89 89 NE 13 20 30.21 1023 6 10 0.00 0.00
2:52 pm 14:52 Cloudy 35 1.7 30 -1.1 82 82 N 13 20 30.23 1024 7 11 0.00 0.00
3:32 pm 15:32 Cloudy with Haze 35 1.7 30 -1.1 82 82 N 12 19 30.25 1024 6 10 0.00 0.00
3:52 pm 15:52 Cloudy with Haze 35 1.7 30 -1.1 82 82 NNE 14 22 30.24 1024 5 8 0.00 0.00
4:52 pm 16:52 Cloudy with Haze 34 1.1 29 -1.7 82 82 NE 10 17 30.26 1025 5 8 0.00 0.00
5:52 pm 17:52 Cloudy with Haze 34 1.1 28 -2.2 79 79 NE 12 19 30.28 1025 6 10 0.00 0.00
6:52 pm 18:52 Cloudy with Haze 34 1.1 27 -2.8 76 76 NNE 9 15 30.30 1026 6 10 0.00 0.00
7:52 pm 19:52 Cloudy 34 1.1 26 -3.3 73 73 NE 12 19 30.31 1026 7 11 0.00 0.00
8:52 pm 20:52 Cloudy 33 0.6 26 -3.3 75 75 NE 9 15 30.32 1027 8 13 0.00 0.00
9:52 pm 21:52 Cloudy with Light Snow 33 0.6 24 -4.4 70 70 NE 10 17 30.33 1027 8 13 0.00 0.00
10:52 pm 22:52 Cloudy 33 0.6 24 -4.4 70 70 NE 9 15 30.32 1027 9 14 0.00 0.00
11:52 pm 23:52 Cloudy 32 0 23 -5 69 69 NNE 9 15 30.32 1027 10 16 0.00 0.00

Powered by AerisWeather